Aérodrome :
LOGIN :

S'inscrire | Disclaimer

   EN    FR    IT 

 










Légende :    VFR   VFR Marginal   IFR   IFR Intensif   IFR Très Intensif
Visi : 
Plafond : 
>= 8 km
>= 3000ft
5 à 8 km
1000 à 3000 ft
1500m à 5 km
500 à 1000 ft
800 à 1500m
200 à 500 ft
< 800m
< 200 ft
Symboles :   Orages  Brouillard  Fortes neiges  Fortes précipitations  Vent > 20 kt
SIGMETs :   Divers  Orages  Givrage  Turbulence  Onde Orograph.  Cendres Volcan.






- Altitude de l'aérodrome : 788 ft
- Code IATA : DCM


LFCK - Castres-Mazamet

DERNIER METAR :
  • 060130Z AUTO 36003KT 300V040 CAVOK 05/04 Q1022

METARs EXPIRÉS :
  • 060100Z AUTO VRB03KT CAVOK 07/04 Q1021
  • 060030Z AUTO 17005KT CAVOK 06/05 Q1021
  • 060000Z AUTO 13002KT CAVOK 06/04 Q1021
  • 052330Z AUTO VRB03KT CAVOK 06/04 Q1021
  • 052300Z AUTO 08003KT CAVOK 06/04 Q1021

TAF TAF LFCK
Valide du 05 à 18h jusqu'au 06 à 03h UTC


051700Z 0518/0603 31008KT CAVOK
BECMG 0520/0522 VRB03KT



MET'MAP, la Météo Aéronautique d'un coup d'oeil ! - Copyright ORBIFLY Décembre 2007 - Disclaimer

ORBIFLY MET'MAP TEAM :

Programmation & Développement : Alexandra Zaïnal
Sur une idée originale de : Baudouin d'Aumeries
Assistance à la programmation : Marc-Olivier Méhu
Soutien technique & logistique : Manuel Goepfert

Contact : metmap@orbifly.com




SOURCES & CREDITS :

   NOAA